This demonstration page uses our WeatherBlox Daily Observations layout. Learn more.

39.92423, -83.80882

Hourly Observations for August 12, 2020

Temp ( °F °C ) Dew Point ( °F °C ) Humidity (%) Winds ( mph kmh ) Pressure ( in mb ) Visibility ( mi km ) Precip ( " mm )
12:56 am 00:56 Clear 68 20 68 20 100 100 Calm 30.04 1017 10 16.0934 0 0
1:56 am 01:56 Clear 66 18.9 66 18.9 100 100 ESE 3 6 30.03 1017 10 16.0934 0 0
2:26 am 02:26 Mostly Cloudy with Mist and Fog 64 18 64 18 100 100 Calm 30.03 1017 1 1.60934 0 0
2:28 am 02:28 Mostly Cloudy with Fog 64 18 64 18 100 100 Calm 30.03 1017 0.5 0.80467 0 0
2:40 am 02:40 Mostly Cloudy with Mist and Fog 64 18 64 18 100 100 Calm 30.03 1017 1 1.60934 0 0
2:54 am 02:54 Mostly Cloudy with Mist and Fog 64 18 64 18 100 100 Calm 30.03 1017 2.5 4.02335 0 0
2:56 am 02:56 Partly Cloudy with Mist and Fog 65 18.3 65 18.3 100 100 Calm 30.04 1017 6 9.65604 0 0
3:56 am 03:56 Clear 64 17.8 64 17.8 100 100 Calm 30.04 1017 10 16.0934 0 0
4:56 am 04:56 Cloudy 67 19.4 67 19.4 100 100 N 3 6 30.04 1017 10 16.0934 0 0
5:56 am 05:56 Clear 65 18.3 65 18.3 100 100 N 5 7 30.05 1018 8 12.87472 0 0
6:50 am 06:50 Partly Cloudy with Mist and Fog 64 18 64 18 100 100 Calm 30.07 1018 1.75 2.816345 0 0
6:56 am 06:56 Mostly Cloudy with Mist and Fog 64 17.8 64 17.8 100 100 Calm 30.07 1018 1.25 2.011675 0 0
7:05 am 07:05 Mostly Cloudy with Mist and Fog 66 19 66 19 100 100 Calm 30.07 1018 3 4.82802 0 0
7:56 am 07:56 Partly Cloudy with Mist and Fog 68 20 68 20 100 100 Calm 30.09 1019 6 9.65604 0 0
8:56 am 08:56 Sunny 73 22.8 72 22.2 96 96 NE 6 9 30.1 1019 10 16.0934 0 0
9:56 am 09:56 Sunny 75 23.9 72 22.2 90 90 ENE 6 9 30.09 1019 10 16.0934 0 0
10:56 am 10:56 Mostly Sunny 78 25.6 71 21.7 79 79 E 5 7 30.09 1019 10 16.0934 0 0
11:56 am 11:56 Mostly Sunny 79 26.1 69 20.6 72 72 ENE 6 9 30.08 1019 10 16.0934 0 0
12:56 pm 12:56 Mostly Sunny 80 26.7 71 21.7 74 74 ESE 5 7 30.09 1019 10 16.0934 0 0
1:56 pm 13:56 Partly Cloudy 81 27.2 71 21.7 72 72 VRB 5 7 30.09 1019 10 16.0934 0 0
2:56 pm 14:56 Sunny 83 28.3 68 20 61 61 Calm 30.07 1018 10 16.0934 0 0
3:56 pm 15:56 Mostly Cloudy 83 28.3 69 20.6 63 63 VRB 5 7 30.06 1018 10 16.0934 0 0
4:56 pm 16:56 Mostly Sunny 83 28.3 67 19.4 59 59 NNW 6 9 30.05 1018 10 16.0934 0 0
5:56 pm 17:56 Sunny 83 28.3 70 21.1 65 65 N 8 13 30.05 1018 10 16.0934 0 0
6:56 pm 18:56 Sunny 81 27.2 68 20 65 65 N 6 9 30.04 1017 10 16.0934 0 0
7:56 pm 19:56 Sunny 79 26.1 67 19.4 67 67 NNE 7 11 30.05 1018 10 16.0934 0 0
8:56 pm 20:56 Clear 72 22.2 69 20.6 91 91 ENE 7 11 30.06 1018 10 16.0934 0 0
9:56 pm 21:56 Clear 70 21.1 69 20.6 97 97 NE 7 11 30.08 1019 10 16.0934 0 0
10:56 pm 22:56 Clear 68 20 68 20 100 100 ENE 6 9 30.07 1018 10 16.0934 0 0
11:56 pm 23:56 Clear 68 20 66 18.9 93 93 NE 5 7 30.08 1019 10 16.0934 0 0

Powered by AerisWeather